Regional Weather Roundup
Issued by NWS Albany, NY

Home | Current Version | Previous Version | Text Only | Print | Product List | Glossary On
Versions: 1 2 3 4 5 6 7 8 9 10 11 12 13 14 15 16 17 18 19 20 21 22 23 24 25 26 27 28 29 30 31 32 33 34 35 36 37 38 39 40 41 42 43 44 45 46 47 48 49 50
000
ASUS41 KALY 100410
RWRALY

NEW YORK STATE HOURLY WEATHER ROUNDUP
NATIONAL WEATHER SERVICE ALBANY NY
1100 PM EST FRI DEC 09 2016

NOTE: "FAIR" INDICATES FEW OR NO CLOUDS BELOW 12,000 FEET WITH NO
SIGNIFICANT WEATHER AND/OR NO OBSTRUCTIONS TO VISIBILITY.

NYZ032-033-038>043-046>054-057>066-NYZ062>081-082-084-100500-
EAST


CITY           SKY/WX    TMP DP  RH WIND       PRES   REMARKS
ALBANY         PTCLDY    20  12  71 NW6       30.26R WCI  12
GLENS FALLS    PTCLDY    24   5  44 NW9       30.25R WCI  14
POUGHKEEPSIE   CLOUDY    25  13  60 SW6       30.26R WCI  18
NEWBURGH       CLEAR     21  16  79 W9        30.26S WCI  11
MONTGOMERY     CLEAR     25  14  63 W6        30.26R WCI  18
WHITE PLAINS   CLEAR     28  13  53 W14G24    30.24R WCI  17
ISLIP          CLEAR     29  12  49 NW13      30.26R WCI  19
NEW YORK CITY  CLEAR     33  14  45 NW17      30.29S WCI  22
CENTRAL PARK   CLEAR     31  11  43 W7        30.30S WCI  24
$$

NYZ005>009-017-018-044>046-055-056-100500-
CENTRAL


CITY           SKY/WX    TMP DP  RH WIND       PRES   REMARKS
FULTON         CLOUDY    25  12  58 NW15      30.28S WCI  13
SYRACUSE       LGT SNOW  22  19  89 W7        30.28S FOG     WCI  13
ROME           PTCLDY    12  10  92 CALM      30.29R
ELMIRA         CLOUDY    23  15  71 CALM      30.27R
BINGHAMTON     CLOUDY    20  16  84 NW6       30.19S WCI  12
MONTICELLO     PTCLDY    18  12  79 W3        30.21S
$$

NYZ026>034-041>043-087-100500-
NORTH


CITY           SKY/WX    TMP DP  RH WIND       PRES   REMARKS
WATERTOWN      CLOUDY    23  11  60 N7        30.29R WCI  15
FORT DRUM      NOT AVBL
OGDENSBURG     FAIR      19  14  80 W8        30.28S WCI   9
MASSENA        CLOUDY    20  10  65 W5        30.27S WCI  13
SARANAC LAKE   CLOUDY    12   6  77 VRB3      30.12R
PLATTSBURGH    CLOUDY    21   4  47 VRB7      30.23S WCI  12
$$

NYZ001>004-010>016-019>021-085-100500-
WEST


CITY           SKY/WX    TMP DP  RH WIND       PRES   REMARKS
NIAGARA FALLS  CLOUDY    28  19  69 W7        30.31S WCI  21
BUFFALO        FLURRIES  26  18  71 W10       30.31S WCI  16
DUNKIRK        CLOUDY    29  20  69 NW12      30.32R WCI  19
JAMESTOWN      CLOUDY    23  18  80 W6        30.25S WCI  16
WELLSVILLE     FLURRIES  23  18  81 NW12      30.22S WCI  12
ROCHESTER      FLURRIES  25  18  74 NW8       30.31R WCI  16
PENN YAN       LGT SNOW  25  19  78 NW5       30.27S WCI  19
$$

             KEY
       WCI = WIND CHILL INDEX
       VSB = VISIBILITY
       HX  = HEAT INDEX
$$



USA.gov is the U.S. government's official web portal to all federal, state and local government web resources and services.